Weather History for LFMN - August, 2013

Change the Weather History Date:

Friday, August 16, 2013

  Actual Average Record
Temperature  
Mean Temperature 78 °F -  
Max Temperature 83 °F 77 °F 86 °F (2003)
Min Temperature 73 °F 64 °F 62 °F (2010)
Cooling Degree Days 13    
Growing Degree Days 28 (Base 50)    
Moisture  
Dew Point 62 °F    
Average Humidity 56    
Maximum Humidity 65    
Minimum Humidity 43    
Precipitation  
Precipitation 0.00 in 0.06 in - ()
Sea Level Pressure  
Sea Level Pressure 30.05 in    
Wind  
Wind Speed 6 mph ()    
Max Wind Speed 13 mph    
Max Gust Speed -    
Visibility 6.2 miles    
Events      
Averages and records for this station are not official NWS values.
T = Trace of Precipitation, MM = Missing Value Source: Averaged Metar Reports

Daily Weather History Graph

Daily Weather History Graph

Search for Another Location

Airport or City:

Trip Planner

Search our weather history database for the weather conditions in past years. The results will help you decide how hot, cold, wet, or windy it might be!

Date:

Astronomy

Aug. 16, 2013 Rise Set
Actual Time 6:36 AM CEST 8:33 PM CEST
Civil Twilight 6:05 AM CEST 9:04 PM CEST
Nautical Twilight 5:27 AM CEST 9:41 PM CEST
Astronomical Twilight 4:46 AM CEST 10:22 PM CEST
Moon 4:39 PM CEST (8/16) 1:20 AM CEST (8/16)
Length of Visible Light 14h 58m
Length of Day
13h 56m
Waxing Gibbous, 72% of the Moon is Illuminated
Aug 16
Waxing Gibbous
Aug 21
Full
Aug 28
Last Quarter
Sep 5
New
Sep 12
First Quarter

Hourly Weather History & Observations

Time (CEST) Temp. Heat Index Dew Point Humidity Pressure Visibility Wind Dir Wind Speed Gust Speed Precip Events Conditions
12:00 AM 78.8 °F - 59.0 °F 51% 30.06 in 6.2 mi NNW 4.6 mph - N/A   Mostly Cloudy
12:30 AM 78.8 °F - 59.0 °F 51% 30.06 in 6.2 mi NNW 5.8 mph - N/A   Mostly Cloudy
1:00 AM 78.8 °F - 59.0 °F 51% 30.06 in 6.2 mi NNW 8.1 mph - N/A   Mostly Cloudy
1:30 AM 77.0 °F - 59.0 °F 54% 30.06 in 6.2 mi NNW 6.9 mph - N/A   Mostly Cloudy
2:00 AM 77 °F - 59 °F 43% 30.08 in 31 mi NNW 9.2 mph - -   Partly Cloudy
2:00 AM 77.0 °F - 59.0 °F 54% 30.06 in 6.2 mi NNW 8.1 mph - N/A   Scattered Clouds
2:30 AM 77.0 °F - 59.0 °F 54% 30.06 in 6.2 mi NNW 6.9 mph - N/A   Partly Cloudy
3:00 AM 75.2 °F - 59.0 °F 57% 30.06 in 6.2 mi NNW 6.9 mph - N/A   Partly Cloudy
3:30 AM 77.0 °F - 59.0 °F 54% 30.06 in 6.2 mi NNW 6.9 mph - N/A   Partly Cloudy
4:00 AM 77.0 °F - 60.8 °F 57% 30.06 in 6.2 mi NNW 6.9 mph - N/A   Partly Cloudy
4:30 AM 77.0 °F - 60.8 °F 57% 30.06 in 6.2 mi NNW 6.9 mph - N/A   Partly Cloudy
5:00 AM 77.0 °F - 60.8 °F 57% 30.06 in 6.2 mi NNW 8.1 mph - N/A   Partly Cloudy
5:30 AM 75.2 °F - 60.8 °F 61% 30.06 in 6.2 mi NNW 8.1 mph - N/A   Partly Cloudy
6:00 AM 73.4 °F - 60.8 °F 65% 30.06 in 6.2 mi NNW 6.9 mph - N/A   Partly Cloudy
6:30 AM 73.4 °F - 60.8 °F 65% 30.06 in 6.2 mi NNW 6.9 mph - N/A   Partly Cloudy
7:00 AM 73.4 °F - 60.8 °F 65% 30.06 in 6.2 mi NNW 8.1 mph - N/A   Partly Cloudy
7:30 AM 73.4 °F - 60.8 °F 65% 30.06 in 6.2 mi NNW 6.9 mph - N/A   Partly Cloudy
8:00 AM 75 °F - 61 °F 52% 30.08 in 31 mi NNW 9.2 mph - -   Scattered Clouds
8:00 AM 75.2 °F - 60.8 °F 61% 30.06 in 6.2 mi NNW 9.2 mph - N/A   Partly Cloudy
8:30 AM 75.2 °F - 60.8 °F 61% 30.06 in 6.2 mi NNW 10.4 mph - N/A   Partly Cloudy
9:00 AM 77.0 °F - 60.8 °F 57% 30.06 in 6.2 mi NNW 11.5 mph - N/A   Partly Cloudy
9:22 AM 78.8 °F - 60.8 °F 54% 30.06 in 6.2 mi NNW 9.2 mph - N/A   Partly Cloudy
10:00 AM 82.4 °F 82.5 °F 59.0 °F 45% 30.06 in 6.2 mi NNW 5.8 mph - N/A   Partly Cloudy
10:30 AM 82.4 °F 82.5 °F 59.0 °F 45% 30.06 in 6.2 mi WSW 3.5 mph - N/A   Partly Cloudy
11:00 AM 82.4 °F 82.9 °F 60.8 °F 48% 30.06 in 6.2 mi South 6.9 mph - N/A   Partly Cloudy
11:30 AM 80.6 °F 82.7 °F 66.2 °F 61% 30.06 in 6.2 mi South 9.2 mph - N/A   Partly Cloudy
12:00 PM 80.6 °F 82.7 °F 66.2 °F 61% 30.06 in 6.2 mi South 11.5 mph - N/A   Partly Cloudy
12:30 PM 82.4 °F 84.6 °F 66.2 °F 58% 30.06 in 6.2 mi South 12.7 mph - N/A   Partly Cloudy
1:00 PM 80.6 °F 82.7 °F 66.2 °F 61% 30.06 in 6.2 mi South 11.5 mph - N/A   Mostly Cloudy
1:30 PM 80.6 °F 82.7 °F 66.2 °F 61% 30.06 in 6.2 mi South 11.5 mph - N/A   Mostly Cloudy
2:00 PM 81 °F - 66 °F 51% 30.07 in 31 mi SSE 10.4 mph - -   Scattered Clouds
2:00 PM 80.6 °F 82.7 °F 66.2 °F 61% 30.06 in 6.2 mi SSE 10.4 mph - N/A   Mostly Cloudy
2:30 PM 80.6 °F 82.7 °F 66.2 °F 61% 30.06 in 6.2 mi SE 8.1 mph - N/A   Mostly Cloudy
3:00 PM 82.4 °F 83.9 °F 64.4 °F 54% 30.06 in 6.2 mi SE 6.9 mph - N/A   Mostly Cloudy
3:30 PM 82.4 °F 83.9 °F 64.4 °F 54% 30.06 in 6.2 mi SSE 4.6 mph - N/A   Mostly Cloudy
4:00 PM 80.6 °F 82.3 °F 64.4 °F 58% 30.06 in 6.2 mi SE 4.6 mph - N/A   Mostly Cloudy
4:30 PM 80.6 °F 81.8 °F 62.6 °F 54% 30.04 in 6.2 mi SSE 5.8 mph - N/A   Mostly Cloudy
5:00 PM 80.6 °F 82.3 °F 64.4 °F 58% 30.04 in 6.2 mi SE 5.8 mph - N/A   Mostly Cloudy
5:30 PM 80.6 °F 81.5 °F 60.8 °F 51% 30.04 in 6.2 mi SE 4.6 mph - N/A   Mostly Cloudy
6:00 PM 80.6 °F 81.1 °F 59.0 °F 48% 30.04 in 6.2 mi South 4.6 mph - N/A   Mostly Cloudy
6:30 PM 82.4 °F 83.4 °F 62.6 °F 51% 30.04 in 6.2 mi South 3.5 mph - N/A   Mostly Cloudy
7:00 PM 80.6 °F 81.8 °F 62.6 °F 54% 30.01 in 6.2 mi SSW 4.6 mph - N/A   Mostly Cloudy
7:30 PM 80.6 °F 81.5 °F 60.8 °F 51% 30.01 in - SSW 3.5 mph - N/A   Clear
8:00 PM 80 °F - 64 °F 48% 30.03 in 31 mi South 3.5 mph - -   Clear
8:00 PM 80.6 °F 81.8 °F 62.6 °F 54% 30.04 in - SSW 3.5 mph - N/A   Clear
8:30 PM 78.8 °F - 62.6 °F 57% 30.04 in - South 3.5 mph - N/A   Clear
9:00 PM 78.8 °F - 62.6 °F 57% 30.01 in - SSW 3.5 mph - N/A   Clear
9:30 PM 78.8 °F - 62.6 °F 57% 30.04 in - SW 3.5 mph - N/A   Clear
10:00 PM 77.0 °F - 60.8 °F 57% 30.04 in - Variable 3.5 mph - N/A   Clear
10:30 PM 77.0 °F - 59.0 °F 54% 30.04 in - Variable 2.3 mph - N/A   Clear
11:00 PM 75.2 °F - 59.0 °F 57% 30.04 in - NW 4.6 mph - N/A   Clear
11:30 PM 75.2 °F - 59.0 °F 57% 30.04 in - NNW 4.6 mph - N/A   Clear